| time (UTC) | temp F | wind direction | speed MPH | gust MPH | rain 1hr in | rain 24hr in | rain mn in | humidity % | barometer mb |
| 20260903171603 | 82 | 209 | 3.0 | 8.0 | 0.00 | 0.41 | 0.18 | 81 | 1013.5 |
| 20260903170603 | 81 | 201 | 1.0 | 6.0 | 0.00 | 0.41 | 0.18 | 82 | 1013.6 |
| 20260903165603 | 81 | 189 | 0.0 | 7.0 | 0.00 | 0.41 | 0.18 | 80 | 1013.7 |
| 20260903164604 | 80 | 185 | 0.0 | 8.0 | 0.00 | 0.41 | 0.18 | 83 | 1013.6 |
| 20260903163603 | 79 | 238 | 1.0 | 12.0 | 0.00 | 0.41 | 0.18 | 83 | 1013.8 |
| 20260903162626 | 79 | 223 | 1.0 | 11.0 | 0.00 | 0.41 | 0.18 | 86 | 1013.7 |
| 20260903161603 | 78 | 230 | 0.0 | 3.0 | 0.00 | 0.41 | 0.18 | 86 | 1013.8 |
| 20260903160603 | 78 | 231 | 0.0 | 5.0 | 0.00 | 0.41 | 0.18 | 84 | 1014.0 |
| 20260903155604 | 78 | 231 | 2.0 | 10.0 | 0.00 | 0.41 | 0.18 | 86 | 1014.1 |
| 20260903154625 | 77 | 235 | 0.0 | 7.0 | 0.00 | 0.41 | 0.18 | 86 | 1014.4 |
| 20260903153603 | 76 | 204 | 1.0 | 10.0 | 0.00 | 0.41 | 0.18 | 89 | 1014.7 |
| 20260903152604 | 75 | 237 | 0.0 | 5.0 | 0.00 | 0.41 | 0.18 | 90 | 1014.8 |
| 20260903151646 | 75 | 237 | 0.0 | 7.0 | 0.00 | 0.41 | 0.18 | 92 | 1014.6 |
| 20260903150603 | 74 | 204 | 0.0 | 10.0 | 0.00 | 0.41 | 0.18 | 96 | 1014.6 |
| 20260903145624 | 73 | 217 | 3.0 | 8.0 | 0.00 | 0.41 | 0.18 | 98 | 1014.5 |
| 20260903144604 | 73 | 215 | 1.0 | 6.0 | 0.00 | 0.41 | 0.18 | 99 | 1014.6 |
| 20260903143604 | 72 | 215 | 4.0 | 6.0 | 0.00 | 0.41 | 0.18 | 99 | 1014.6 |
| 20260903142603 | 72 | 217 | 3.0 | 6.0 | 0.00 | 0.41 | 0.18 | 99 | 1014.7 |
| 20260903141603 | 71 | 220 | 0.0 | 7.0 | 0.00 | 0.41 | 0.18 | 99 | 1014.7 |
| 20260903140603 | 71 | 222 | 1.0 | 7.0 | 0.00 | 0.41 | 0.18 | 99 | 1014.8 |
| 20260903135603 | 71 | 234 | 3.0 | 9.0 | 0.00 | 0.41 | 0.18 | 99 | 1014.7 |
| 20260903134604 | 70 | 241 | 1.0 | 8.0 | 0.00 | 0.41 | 0.18 | 99 | 1014.7 |
| 20260903133604 | 70 | 266 | 2.0 | 8.0 | 0.00 | 0.41 | 0.18 | 99 | 1014.8 |
| 20260903132603 | 70 | 287 | 0.0 | 5.0 | 0.00 | 0.41 | 0.18 | 99 | 1015.0 |
| 20260903131603 | 70 | 287 | 0.0 | 4.0 | 0.00 | 0.41 | 0.18 | 99 | 1014.8 |
| 20260903130603 | 70 | 287 | 0.0 | 3.0 | 0.00 | 0.41 | 0.18 | 99 | 1014.8 |
| 20260903125603 | 69 | 287 | 0.0 | 0.0 | 0.00 | 0.41 | 0.18 | 99 | 1014.8 |
| 20260903124603 | 69 | 287 | 0.0 | 0.0 | 0.00 | 0.41 | 0.18 | 99 | 1015.1 |
| 20260903123604 | 69 | 287 | 0.0 | 0.0 | 0.00 | 0.41 | 0.18 | 99 | 1014.9 |
| 20260903122624 | 68 | 287 | 0.0 | 0.0 | 0.00 | 0.41 | 0.18 | 99 | 1015.0 |
| 20260903121603 | 68 | 287 | 0.0 | 0.0 | 0.00 | 0.41 | 0.18 | 99 | 1015.1 |
| 20260903120603 | 68 | 287 | 0.0 | 0.0 | 0.00 | 0.41 | 0.18 | 99 | 1015.0 |
| 20260903115604 | 68 | 287 | 0.0 | 0.0 | 0.00 | 0.41 | 0.18 | 99 | 1015.0 |
| 20260903114603 | 67 | 287 | 0.0 | 0.0 | 0.00 | 0.41 | 0.18 | 99 | 1014.6 |
| 20260903113603 | 67 | 287 | 0.0 | 0.0 | 0.00 | 0.41 | 0.18 | 99 | 1015.1 |
| 20260903112625 | 67 | 287 | 0.0 | 0.0 | 0.00 | 0.41 | 0.18 | 99 | 1015.2 |
| 20260903111625 | 67 | 287 | 0.0 | 0.0 | 0.00 | 0.41 | 0.18 | 99 | 1015.6 |
| 20260903110603 | 67 | 287 | 0.0 | 0.0 | 0.00 | 0.41 | 0.18 | 99 | 1015.1 |
| 20260903105603 | 67 | 287 | 0.0 | 0.0 | 0.00 | 0.41 | 0.18 | 99 | 1015.3 |
| 20260903104604 | 67 | 287 | 0.0 | 0.0 | 0.00 | 0.41 | 0.18 | 99 | 1015.2 |
| 20260903103603 | 67 | 287 | 0.0 | 0.0 | 0.00 | 0.41 | 0.18 | 99 | 1015.1 |
| 20260903102603 | 67 | 287 | 0.0 | 0.0 | 0.00 | 0.41 | 0.18 | 99 | 1015.1 |
| 20260903101603 | 67 | 287 | 0.0 | 0.0 | 0.00 | 0.41 | 0.18 | 99 | 1015.2 |
| 20260903100603 | 67 | 287 | 0.0 | 0.0 | 0.00 | 0.41 | 0.18 | 99 | 1015.3 |
| 20260903095603 | 67 | 287 | 0.0 | 0.0 | 0.00 | 0.41 | 0.18 | 99 | 1015.0 |
| 20260903094603 | 67 | 287 | 0.0 | 0.0 | 0.00 | 0.41 | 0.18 | 99 | 1014.7 |
| 20260903093603 | 67 | 287 | 0.0 | 0.0 | 0.00 | 0.41 | 0.18 | 99 | 1014.8 |
| 20260903092624 | 67 | 287 | 0.0 | 0.0 | 0.00 | 0.42 | 0.18 | 99 | 1014.6 |
| 20260903091603 | 67 | 287 | 0.0 | 4.0 | 0.00 | 0.42 | 0.18 | 99 | 1014.8 |
| 20260903090603 | 67 | 289 | 1.0 | 5.0 | 0.00 | 0.42 | 0.18 | 99 | 1014.8 |
| 20260903085602 | 67 | 296 | 0.0 | 0.0 | 0.02 | 0.42 | 0.18 | 99 | 1015.2 |
| 20260903084602 | 67 | 296 | 0.0 | 0.0 | 0.01 | 0.41 | 0.17 | 99 | 1015.4 |
| 20260903083603 | 67 | 296 | 0.0 | 0.0 | 0.01 | 0.41 | 0.17 | 99 | 1015.0 |
| 20260903082603 | 67 | 296 | 0.0 | 0.0 | 0.01 | 0.41 | 0.17 | 99 | 1014.8 |
| 20260903081602 | 67 | 296 | 0.0 | 0.0 | 0.01 | 0.41 | 0.17 | 99 | 1014.7 |
| 20260903080603 | 67 | 296 | 0.0 | 0.0 | 0.01 | 0.41 | 0.17 | 99 | 1015.2 |
| 20260903075603 | 67 | 295 | 0.0 | 4.0 | 0.00 | 0.40 | 0.16 | 99 | 1015.8 |
| 20260903074625 | 67 | 296 | 0.0 | 0.0 | 0.00 | 0.40 | 0.16 | 99 | 1015.8 |
| 20260903073603 | 67 | 296 | 0.0 | 0.0 | 0.00 | 0.40 | 0.16 | 99 | 1015.7 |
| 20260903072603 | 66 | 296 | 0.0 | 0.0 | 0.00 | 0.40 | 0.16 | 99 | 1015.7 |
| 20260903071603 | 66 | 296 | 0.0 | 0.0 | 0.00 | 0.40 | 0.16 | 99 | 1015.5 |
| 20260903070603 | 66 | 296 | 0.0 | 0.0 | 0.00 | 0.40 | 0.16 | 99 | 1015.5 |
| 20260903065603 | 66 | 296 | 0.0 | 0.0 | 0.01 | 0.40 | 0.16 | 99 | 1015.5 |
| 20260903064603 | 66 | 296 | 0.0 | 0.0 | 0.01 | 0.40 | 0.16 | 99 | 1015.7 |
| 20260903063624 | 66 | 296 | 0.0 | 0.0 | 0.01 | 0.40 | 0.16 | 99 | 1015.9 |
| 20260903062603 | 66 | 296 | 0.0 | 0.0 | 0.01 | 0.40 | 0.16 | 99 | 1016.2 |
| 20260903061603 | 66 | 296 | 0.0 | 0.0 | 0.00 | 0.39 | 0.15 | 99 | 1016.5 |
| 20260903060624 | 66 | 296 | 0.0 | 0.0 | 0.00 | 0.40 | 0.15 | 99 | 1016.7 |
| 20260903054646 | 66 | 296 | 0.0 | 0.0 | 0.05 | 0.40 | 0.15 | 99 | 1017.1 |
| 20260903053603 | 66 | 296 | 0.0 | 0.0 | 0.05 | 0.40 | 0.15 | 99 | 1016.9 |
| 20260903052603 | 66 | 296 | 0.0 | 0.0 | 0.05 | 0.40 | 0.15 | 98 | 1017.0 |
| 20260903051603 | 66 | 296 | 0.0 | 0.0 | 0.04 | 0.39 | 0.14 | 98 | 1017.4 |
| 20260903050603 | 66 | 296 | 0.0 | 0.0 | 0.02 | 0.37 | 0.12 | 98 | 1017.3 |
| 20260903045603 | 66 | 296 | 0.0 | 0.0 | 0.09 | 0.34 | 0.09 | 98 | 1018.1 |
| 20260903044602 | 66 | 296 | 0.0 | 4.0 | 0.07 | 0.32 | 0.07 | 98 | 1018.6 |
| 20260903043603 | 66 | 296 | 0.0 | 3.0 | 0.05 | 0.30 | 0.05 | 98 | 1018.7 |
| 20260903042603 | 66 | 296 | 0.0 | 0.0 | 0.02 | 0.27 | 0.02 | 98 | 1019.7 |
| 20260903041603 | 66 | 296 | 0.0 | 0.0 | 0.01 | 0.26 | 0.01 | 98 | 1018.8 |
| 20260903040602 | 66 | 296 | 0.0 | 0.0 | 0.00 | 0.25 | 0.00 | 98 | 1018.9 |
| 20260903035603 | 66 | 296 | 0.0 | 0.0 | 0.00 | 0.25 | 0.25 | 98 | 1018.9 |
| 20260903034603 | 66 | 296 | 0.0 | 0.0 | 0.00 | 0.25 | 0.25 | 98 | 1018.7 |
| 20260903033646 | 66 | 296 | 0.0 | 0.0 | 0.00 | 0.25 | 0.25 | 98 | 1018.5 |
| 20260903032604 | 66 | 296 | 0.0 | 0.0 | 0.00 | 0.25 | 0.25 | 99 | 1018.5 |
| 20260903031603 | 66 | 296 | 0.0 | 0.0 | 0.00 | 0.25 | 0.25 | 98 | 1018.8 |
| 20260903030603 | 66 | 296 | 0.0 | 0.0 | 0.00 | 0.25 | 0.25 | 98 | 1018.6 |
| 20260903025602 | 66 | 296 | 0.0 | 0.0 | 0.00 | 0.25 | 0.25 | 98 | 1018.5 |
| 20260903024625 | 66 | 296 | 0.0 | 0.0 | 0.00 | 0.25 | 0.25 | 98 | 1018.7 |
| 20260903023603 | 66 | 296 | 0.0 | 0.0 | 0.00 | 0.25 | 0.25 | 98 | 1018.6 |
| 20260903022603 | 66 | 296 | 0.0 | 0.0 | 0.00 | 0.25 | 0.25 | 98 | 1018.7 |
| 20260903021603 | 66 | 296 | 0.0 | 0.0 | 0.00 | 0.25 | 0.25 | 98 | 1018.7 |
| 20260903020603 | 66 | 296 | 0.0 | 0.0 | 0.00 | 0.25 | 0.25 | 98 | 1019.0 |
| 20260903015604 | 66 | 296 | 0.0 | 0.0 | 0.00 | 0.25 | 0.25 | 98 | 1019.0 |
| 20260903014603 | 66 | 296 | 0.0 | 0.0 | 0.00 | 0.25 | 0.25 | 98 | 1018.9 |
| 20260903013603 | 66 | 296 | 0.0 | 0.0 | 0.00 | 0.25 | 0.25 | 98 | 1018.9 |
| 20260903012602 | 66 | 296 | 0.0 | 0.0 | 0.00 | 0.25 | 0.25 | 98 | 1019.1 |
| 20260903011603 | 66 | 296 | 0.0 | 0.0 | 0.00 | 0.25 | 0.25 | 98 | 1019.1 |
| 20260903010624 | 66 | 296 | 0.0 | 0.0 | 0.00 | 0.25 | 0.25 | 98 | 1019.2 |
| 20260903005603 | 66 | 296 | 0.0 | 0.0 | 0.00 | 0.25 | 0.25 | 98 | 1019.6 |
| 20260903004603 | 66 | 296 | 0.0 | 0.0 | 0.00 | 0.25 | 0.25 | 98 | 1019.4 |
| 20260903003603 | 66 | 296 | 0.0 | 0.0 | 0.00 | 0.25 | 0.25 | 98 | 1019.4 |
| 20260903002624 | 66 | 296 | 0.0 | 0.0 | 0.00 | 0.25 | 0.25 | 98 | 1019.5 |
| 20260903001603 | 66 | 296 | 0.0 | 0.0 | 0.00 | 0.25 | 0.25 | 98 | 1019.4 |
| 20260903000603 | 66 | 296 | 0.0 | 0.0 | 0.00 | 0.25 | 0.25 | 98 | 1019.2 |
| 20260902235602 | 66 | 296 | 0.0 | 0.0 | 0.00 | 0.25 | 0.25 | 98 | 1018.9 |
| 20260902234624 | 66 | 296 | 0.0 | 0.0 | 0.00 | 0.25 | 0.25 | 98 | 1018.6 |
| 20260902233603 | 66 | 296 | 0.0 | 0.0 | 0.00 | 0.25 | 0.25 | 98 | 1018.7 |
| 20260902232603 | 66 | 296 | 0.0 | 0.0 | 0.00 | 0.25 | 0.25 | 98 | 1018.8 |
| 20260902231603 | 66 | 296 | 0.0 | 0.0 | 0.00 | 0.25 | 0.25 | 98 | 1018.9 |
| 20260902230603 | 66 | 296 | 0.0 | 0.0 | 0.00 | 0.25 | 0.25 | 98 | 1019.0 |
| 20260902225603 | 66 | 296 | 0.0 | 0.0 | 0.00 | 0.25 | 0.25 | 98 | 1018.9 |
| 20260902224603 | 66 | 296 | 0.0 | 0.0 | 0.00 | 0.25 | 0.25 | 98 | 1019.1 |
| 20260902223603 | 66 | 296 | 0.0 | 0.0 | 0.00 | 0.26 | 0.25 | 98 | 1019.2 |
| 20260902222603 | 67 | 296 | 0.0 | 0.0 | 0.00 | 0.33 | 0.25 | 98 | 1019.4 |
| 20260902220604 | 67 | 296 | 0.0 | 2.0 | 0.00 | 0.33 | 0.25 | 98 | 1019.4 |
| 20260902215604 | 67 | 296 | 0.0 | 0.0 | 0.00 | 0.33 | 0.25 | 98 | 1019.4 |
| 20260902214604 | 67 | 296 | 0.0 | 0.0 | 0.00 | 0.33 | 0.25 | 98 | 1019.8 |
| 20260902213604 | 67 | 296 | 0.0 | 0.0 | 0.00 | 0.33 | 0.25 | 98 | 1019.8 |
| 20260902212625 | 67 | 296 | 0.0 | 0.0 | 0.00 | 0.33 | 0.25 | 98 | 1019.7 |
| 20260902211603 | 67 | 296 | 0.0 | 0.0 | 0.00 | 0.33 | 0.25 | 98 | 1019.6 |
| 20260902210604 | 67 | 296 | 0.0 | 0.0 | 0.00 | 0.34 | 0.25 | 98 | 1019.7 |
| 20260902205604 | 67 | 296 | 0.0 | 0.0 | 0.00 | 0.34 | 0.25 | 98 | 1019.6 |
| 20260902204604 | 67 | 296 | 0.0 | 0.0 | 0.00 | 0.34 | 0.25 | 98 | 1019.8 |
| 20260902203604 | 67 | 296 | 0.0 | 1.0 | 0.00 | 0.38 | 0.25 | 98 | 1019.8 |
| 20260902202603 | 67 | 296 | 0.0 | 0.0 | 0.00 | 0.41 | 0.25 | 98 | 1019.5 |
| 20260902201625 | 67 | 296 | 0.0 | 2.0 | 0.00 | 0.41 | 0.25 | 98 | 1019.3 |
| 20260902200604 | 67 | 296 | 0.0 | 0.0 | 0.00 | 0.41 | 0.25 | 98 | 1019.5 |
| 20260902195604 | 67 | 296 | 0.0 | 0.0 | 0.04 | 0.41 | 0.25 | 98 | 1019.4 |
| 20260902194603 | 67 | 296 | 0.0 | 0.0 | 0.04 | 0.41 | 0.25 | 98 | 1019.5 |
| 20260902193625 | 67 | 296 | 0.0 | 0.0 | 0.04 | 0.41 | 0.25 | 98 | 1019.8 |
| 20260902192604 | 67 | 296 | 0.0 | 0.0 | 0.04 | 0.41 | 0.25 | 98 | 1019.9 |
| 20260902191604 | 66 | 296 | 0.0 | 0.0 | 0.04 | 0.41 | 0.25 | 98 | 1020.1 |
| 20260902190603 | 66 | 296 | 0.0 | 0.0 | 0.04 | 0.41 | 0.25 | 98 | 1020.3 |
| 20260902185604 | 66 | 296 | 0.0 | 0.0 | 0.19 | 0.37 | 0.21 | 98 | 1020.5 |
| 20260902184604 | 66 | 296 | 0.0 | 0.0 | 0.17 | 0.35 | 0.19 | 98 | 1020.7 |
| 20260902183625 | 66 | 296 | 0.0 | 2.0 | 0.07 | 0.25 | 0.09 | 98 | 1020.9 |
| 20260902182604 | 66 | 296 | 0.0 | 0.0 | 0.00 | 0.18 | 0.02 | 98 | 1020.7 |
| 20260902181604 | 66 | 296 | 0.0 | 0.0 | 0.00 | 0.18 | 0.02 | 98 | 1020.6 |
| 20260902180626 | 66 | 296 | 0.0 | 0.0 | 0.00 | 0.18 | 0.02 | 98 | 1020.5 |
| 20260902175604 | 66 | 296 | 0.0 | 0.0 | 0.00 | 0.18 | 0.02 | 98 | 1020.5 |
| 20260902174625 | 66 | 296 | 0.0 | 0.0 | 0.00 | 0.18 | 0.02 | 98 | 1020.3 |
| 20260902173603 | 66 | 296 | 0.0 | 0.0 | 0.00 | 0.18 | 0.02 | 98 | 1020.3 |
| 20260902172625 | 66 | 296 | 0.0 | 0.0 | 0.00 | 0.18 | 0.02 | 98 | 1020.4 |